Weather History for La Grange, TX

Change the Weather History Date:

Tuesday, January 8, 2013

  Actual Average (KAUS) Record (KAUS)
Temperature  
Mean Temperature 57 °F 49 °F  
Max Temperature 64 °F 62 °F 81 °F (2009)
Min Temperature 50 °F 36 °F 13 °F (2010)
Degree Days  
Heating Degree Days 8 16  
Month to date heating degree days 128  
Since 1 July heating degree days 875  
Cooling Degree Days 0 0  
Month to date cooling degree days 0  
Year to date cooling degree days 0  
Growing Degree Days 7 (Base 50)    
Moisture  
Dew Point 55 °F    
Average Humidity 91    
Maximum Humidity 100    
Minimum Humidity 77    
Precipitation  
Precipitation 0.00 in 0.07 in 0.82 in (1984)
Month to date precipitation 0.61  
Year to date precipitation 0.61  
Snow  
Snow 0.00 in - - ()
Month to date snowfall  
Since 1 July snowfall  
Snow Depth -    
Sea Level Pressure  
Sea Level Pressure 29.94 in    
Wind  
Wind Speed 4 mph (East)    
Max Wind Speed 8 mph    
Max Gust Speed -    
Visibility 3 miles    
Events Fog , Rain , Thunderstorm    
T = Trace of Precipitation, MM = Missing Value Source: NWS Daily Summary

Daily Weather History Graph

Daily Weather History Graph

Search for Another Location

Airport:

Trip Planner

Search our weather history database for the weather conditions in past years. The results will help you decide how hot, cold, wet, or windy it might be!

Date:

Astronomy

Jan. 08, 2013 Rise Set
Actual Time 7:24 AM CST 5:45 PM CST
Civil Twilight 6:58 AM CST 6:11 PM CST
Nautical Twilight 6:28 AM CST 6:40 PM CST
Astronomical Twilight 5:59 AM CST 7:09 PM CST
Moon 4:00 AM CST (1/8) 2:47 PM CST (1/8)
Length of Visible Light 11h 12m
Length of Day
10h 20m
Waning Crescent, 13% of the Moon is Illuminated
Jan 8
Waning Crescent
Jan 11
New
Jan 18
First Quarter
Jan 26
Full
Feb 3
Last Quarter

Hourly Weather History & Observations

Time (CST) Temp. Dew Point Humidity Pressure Visibility Wind Dir Wind Speed Gust Speed Precip Events Conditions
12:15 AM 51.8 °F 46.4 °F 82% 30.05 in 10.0 mi East 4.6 mph - N/A   Overcast
12:35 AM 51.8 °F 46.4 °F 82% 30.04 in 10.0 mi East 3.5 mph - N/A   Mostly Cloudy
12:55 AM 51.8 °F 46.4 °F 82% 30.03 in 10.0 mi East 4.6 mph - N/A   Mostly Cloudy
1:15 AM 53.6 °F 46.4 °F 77% 30.03 in 10.0 mi ESE 6.9 mph - N/A   Overcast
1:35 AM 53.6 °F 46.4 °F 77% 30.02 in 10.0 mi East 6.9 mph - N/A   Overcast
1:55 AM 53.6 °F 46.4 °F 77% 30.03 in 10.0 mi East 5.8 mph - N/A   Overcast
2:15 AM 51.8 °F 46.4 °F 82% 30.03 in 10.0 mi East 6.9 mph - N/A   Overcast
2:35 AM 51.8 °F 48.2 °F 88% 30.02 in 7.0 mi East 3.5 mph - N/A   Overcast
2:55 AM 51.8 °F 48.2 °F 88% 30.01 in 5.0 mi East 4.6 mph - N/A Rain Rain
3:15 AM 51.8 °F 50.0 °F 94% 30.01 in 3.0 mi East 3.5 mph - N/A Rain Heavy Rain
3:35 AM 51.8 °F 50.0 °F 94% 30.01 in 5.0 mi NE 4.6 mph - N/A Rain Heavy Rain
3:55 AM 51.8 °F 50.0 °F 94% 30.00 in 4.0 mi Calm Calm - N/A Rain Light Rain
4:15 AM 51.8 °F 50.0 °F 94% 30.00 in 4.0 mi Calm Calm - N/A   Drizzle
4:35 AM 50.0 °F 50.0 °F 100% 29.99 in 4.0 mi Calm Calm - N/A   Unknown
4:55 AM 50.0 °F 50.0 °F 100% 29.98 in 3.0 mi ENE 4.6 mph - N/A Rain Rain
5:15 AM 50.0 °F 50.0 °F 100% 29.95 in 3.0 mi ENE 5.8 mph - N/A   Drizzle
5:35 AM 50.0 °F 50.0 °F 100% 29.95 in 3.0 mi Calm Calm - N/A   Light Drizzle
5:55 AM 51.8 °F 50.0 °F 94% 29.95 in 5.0 mi Calm Calm - N/A   Overcast
6:15 AM 51.8 °F 50.0 °F 94% 29.95 in 7.0 mi ENE 4.6 mph - N/A   Overcast
6:35 AM 51.8 °F 50.0 °F 94% 29.97 in 7.0 mi NE 3.5 mph - N/A   Overcast
6:55 AM 51.8 °F 50.0 °F 94% 29.98 in 7.0 mi Calm Calm - N/A Rain Light Rain
7:15 AM 51.8 °F 50.0 °F 94% 29.98 in 5.0 mi NE 3.5 mph - N/A Rain Rain
7:35 AM 51.8 °F 50.0 °F 94% 29.99 in 4.0 mi Calm Calm - N/A Rain Rain
7:55 AM 51.8 °F 50.0 °F 94% 30.00 in 4.0 mi Calm Calm - N/A   Overcast
8:15 AM 51.8 °F 50.0 °F 94% 30.01 in 3.0 mi NNE 3.5 mph - N/A   Light Drizzle
8:35 AM 51.8 °F 50.0 °F 94% 30.01 in 2.0 mi NE 3.5 mph - N/A   Overcast
8:55 AM 51.8 °F 50.0 °F 94% 30.00 in 1.0 mi ENE 6.9 mph - N/A   Drizzle
9:15 AM 51.8 °F 51.8 °F 100% 29.99 in 1.2 mi East 5.8 mph - N/A   Overcast
9:35 AM 53.6 °F 51.8 °F 94% 29.99 in 1.8 mi East 4.6 mph - N/A Thunderstorm Overcast
9:55 AM 53.6 °F 51.8 °F 94% 30.00 in 2.0 mi East 3.5 mph - N/A Rain , Thunderstorm Light Thunderstorms and Rain
10:15 AM 53.6 °F 51.8 °F 94% 30.00 in 1.2 mi Calm Calm - N/A Thunderstorm Unknown
10:35 AM 53.6 °F 51.8 °F 94% 29.99 in 1.8 mi ENE 3.5 mph - N/A Thunderstorm Overcast
10:55 AM 55.4 °F 53.6 °F 94% 29.97 in 1.8 mi East 3.5 mph - N/A   Overcast
11:15 AM 55.4 °F 53.6 °F 94% 29.96 in 1.8 mi East 3.5 mph - N/A   Light Drizzle
11:35 AM 55.4 °F 53.6 °F 94% 29.95 in 1.8 mi East 4.6 mph - N/A Thunderstorm Overcast
11:55 AM 55.4 °F 53.6 °F 94% 29.94 in 1.8 mi East 3.5 mph - N/A Rain , Thunderstorm Rain
12:15 PM 57.2 °F 55.4 °F 94% 29.92 in 1.5 mi ESE 5.8 mph - N/A   Overcast
12:35 PM 59.0 °F 55.4 °F 88% 29.90 in 1.2 mi East 5.8 mph - N/A Thunderstorm Overcast
12:55 PM 59.0 °F 55.4 °F 88% 29.89 in 1.2 mi East 4.6 mph - N/A Thunderstorm Overcast
1:15 PM 59.0 °F 55.4 °F 88% 29.89 in 1.0 mi East 3.5 mph - N/A Rain Rain
1:35 PM 59.0 °F 57.2 °F 94% 29.88 in 1.0 mi East 3.5 mph - N/A   Overcast
1:55 PM 59.0 °F 57.2 °F 94% 29.88 in 0.5 mi ENE 4.6 mph - N/A   Light Drizzle
2:15 PM 59.0 °F 57.2 °F 94% 29.86 in 0.2 mi ENE 3.5 mph - N/A   Unknown
2:35 PM 60.8 °F 59.0 °F 94% 29.86 in 0.5 mi Calm Calm - N/A Fog Fog
2:55 PM 60.8 °F 59.0 °F 94% 29.86 in 0.8 mi Calm Calm - N/A   Overcast
3:15 PM 60.8 °F 59.0 °F 94% 29.84 in 1.5 mi Calm Calm - N/A   Overcast
3:35 PM 62.6 °F 59.0 °F 88% 29.85 in 1.5 mi NNW 3.5 mph - N/A   Overcast
3:55 PM 62.6 °F 60.8 °F 94% 29.85 in 1.8 mi Calm Calm - N/A   Overcast
4:15 PM 62.6 °F 60.8 °F 94% 29.86 in 1.8 mi Calm Calm - N/A   Overcast
4:35 PM 62.6 °F 59.0 °F 88% 29.87 in 1.5 mi Calm Calm - N/A   Overcast
4:55 PM 62.6 °F 60.8 °F 94% 29.86 in 1.2 mi Calm Calm - N/A   Overcast
5:15 PM 62.6 °F 60.8 °F 94% 29.86 in 1.5 mi Calm Calm - N/A   Overcast
5:35 PM 62.6 °F 60.8 °F 94% 29.86 in 1.5 mi Calm Calm - N/A   Overcast
5:55 PM 62.6 °F 60.8 °F 94% 29.87 in 2.0 mi Calm Calm - N/A   Overcast
6:15 PM 62.6 °F 59.0 °F 88% 29.87 in 1.5 mi Calm Calm - N/A   Overcast
6:35 PM 62.6 °F 59.0 °F 88% 29.88 in 1.5 mi North 3.5 mph - N/A   Overcast
6:55 PM 62.6 °F 59.0 °F 88% 29.88 in 1.5 mi Calm Calm - N/A   Overcast
7:15 PM 62.6 °F 59.0 °F 88% 29.88 in 1.2 mi Calm Calm - N/A Rain Rain
7:35 PM 64.4 °F 60.8 °F 88% 29.88 in 2.5 mi East 4.6 mph - N/A   Overcast
7:55 PM 64.4 °F 60.8 °F 88% 29.88 in 2.0 mi East 4.6 mph - N/A   Overcast
8:15 PM 64.4 °F 60.8 °F 88% 29.88 in 2.0 mi ESE 3.5 mph - N/A   Overcast
8:35 PM 64.4 °F 60.8 °F 88% 29.89 in 2.5 mi East 4.6 mph - N/A   Overcast
8:55 PM 64.4 °F 60.8 °F 88% 29.89 in 2.5 mi East 4.6 mph - N/A   Overcast
9:15 PM 64.4 °F 60.8 °F 88% 29.90 in 2.0 mi East 4.6 mph - N/A   Overcast
9:35 PM 64.4 °F 60.8 °F 88% 29.90 in 2.5 mi East 4.6 mph - N/A   Overcast
9:55 PM 64.4 °F 60.8 °F 88% 29.90 in 2.5 mi East 3.5 mph - N/A   Overcast
10:15 PM 64.4 °F 60.8 °F 88% 29.91 in 2.5 mi Calm Calm - N/A Thunderstorm Overcast
10:35 PM 64.4 °F 60.8 °F 88% 29.91 in 3.0 mi East 3.5 mph - N/A   Overcast
10:55 PM 64.4 °F 60.8 °F 88% 29.90 in 3.0 mi East 8.1 mph - N/A Thunderstorm Overcast
11:15 PM 64.4 °F 60.8 °F 88% 29.90 in 3.0 mi ESE 6.9 mph - N/A Rain Light Rain
11:35 PM 62.6 °F 59.0 °F 88% 29.90 in 4.0 mi SE 6.9 mph - N/A   Overcast
11:55 PM 62.6 °F 59.0 °F 88% 29.90 in 5.0 mi ESE 6.9 mph - N/A Rain , Thunderstorm Rain